Theta_e
324 324 324 322 322 321 320 321 320 321 322 321 323 324 325 335 346 346 345 343 340 340 340 340 339 338 337 336 336 336 335 336 336 335 334 333 332 331 331 331 331 331 332 333 336 338 338 339 342 343 344 347 349 349 350 350 350 350 348 349 351 351 352 352 352 352 353 353 353 353 354 353 351 349 348 348 347 346 349 351 349 347 346 347 348 348 348
322 322 322 322 321 320 320 321 321 321 321 320 321 322 325 337 345 345 344 344 342 339 339 339 338 336 335 335 334 334 333 334 334 334 333 331 331 330 329 328 328 328 329 329 330 333 334 335 337 339 340 342 344 345 346 348 348 347 346 348 350 351 351 352 351 351 352 352 351 352 352 351 351 349 348 349 348 346 349 351 350 348 348 348 348 347 347
321 320 321 322 320 321 320 319 320 321 320 320 321 320 328 341 344 342 343 344 342 340 338 337 335 333 333 333 332 332 331 330 330 330 330 329 329 328 327 327 327 326 326 325 325 327 329 330 332 335 338 339 340 341 343 344 344 344 344 347 349 350 351 351 351 351 351 351 351 351 351 351 352 350 349 350 348 347 349 351 349 348 348 348 347 346 346
321 320 320 320 320 320 318 318 322 322 320 321 321 321 329 338 342 341 342 342 341 340 336 334 333 331 331 331 330 329 329 328 329 328 327 327 327 326 326 326 326 326 325 325 324 324 324 325 326 328 331 334 335 336 339 340 342 343 345 346 347 348 349 350 350 350 350 350 351 351 351 351 352 352 351 351 350 350 351 352 349 348 347 347 347 346 346
321 320 319 319 320 321 319 320 323 324 324 322 319 322 330 336 340 342 341 341 340 337 334 333 332 330 330 330 329 328 328 328 327 327 327 326 326 326 325 324 324 325 325 325 324 323 323 323 323 324 326 327 327 329 333 337 340 342 343 344 345 346 347 348 349 349 349 349 350 350 350 351 352 353 353 353 353 353 353 352 351 348 346 346 347 346 346
322 322 322 321 320 319 320 324 324 324 325 324 321 326 333 337 339 341 341 339 337 335 333 333 332 330 329 329 328 327 327 326 326 326 326 325 325 325 323 322 322 323 324 324 324 323 322 322 323 323 323 323 322 324 330 335 336 337 337 339 342 344 345 346 347 348 348 348 349 349 349 350 351 352 352 352 353 353 353 352 352 350 347 347 347 347 346
322 324 324 321 321 322 323 326 325 324 325 326 327 330 335 337 338 339 339 337 335 333 332 332 331 330 329 328 328 327 326 325 325 324 324 324 324 324 323 321 321 321 322 323 323 323 321 320 321 322 323 323 321 322 328 332 335 334 328 326 331 337 341 343 345 346 347 348 348 348 349 350 350 351 351 352 352 353 354 353 353 352 350 349 347 347 347
322 323 321 320 324 327 328 327 326 326 327 328 329 331 333 337 337 337 338 338 335 333 332 332 331 330 329 329 328 328 327 326 324 323 323 323 323 323 323 321 320 320 321 322 322 322 321 319 319 320 322 323 322 321 324 327 329 329 322 316 318 323 329 336 339 341 343 344 345 346 347 348 349 350 351 351 351 352 353 353 353 353 352 351 350 349 349
322 321 321 324 328 328 328 329 327 326 327 328 329 330 332 335 336 335 336 337 334 332 331 331 331 330 329 329 328 326 327 326 324 323 322 321 321 322 321 319 318 318 320 321 320 321 320 319 319 320 321 322 322 322 322 323 324 323 320 316 314 315 317 323 329 332 335 336 339 342 342 342 344 348 350 350 351 351 351 352 352 352 352 352 351 351 351
324 322 321 325 327 326 328 331 327 324 324 323 327 332 331 331 333 334 334 334 332 331 331 331 330 328 329 329 327 324 324 324 323 322 321 320 320 320 319 318 316 316 318 319 318 319 319 318 318 320 321 322 322 319 320 323 323 323 322 318 314 314 313 315 317 320 323 325 328 330 332 333 338 344 347 349 349 350 350 351 351 351 352 352 352 351 351
323 322 321 321 325 329 332 331 325 323 322 321 324 329 329 329 332 333 333 332 331 331 330 330 329 330 332 331 326 322 322 322 321 321 319 318 318 318 318 316 315 316 317 317 317 317 317 317 318 320 320 321 320 317 317 321 323 324 323 318 314 313 313 312 313 313 315 317 317 318 321 325 329 334 340 344 347 348 348 349 350 350 351 351 352 352 352
320 322 320 321 327 332 332 327 321 319 319 320 324 326 327 328 330 331 331 330 330 330 330 329 329 331 333 331 325 322 322 321 320 319 318 317 317 317 316 315 315 316 316 316 316 316 316 317 318 318 318 319 318 315 316 319 322 322 321 317 315 313 311 311 312 312 312 313 314 314 317 318 320 323 328 333 338 342 344 345 347 350 351 351 352 352 352
319 320 317 321 328 330 327 323 319 316 317 320 323 326 327 326 326 327 329 329 328 329 328 327 326 326 326 325 322 321 321 319 318 318 317 317 317 316 316 316 316 315 315 315 315 315 315 316 317 316 316 316 314 313 315 318 320 320 320 318 316 313 310 310 311 311 311 312 312 313 314 315 316 317 319 321 324 328 331 334 338 342 345 346 347 347 347
319 318 317 322 330 328 322 320 316 314 320 324 324 325 326 323 322 324 326 326 326 326 326 324 322 321 321 321 320 319 319 318 317 317 317 317 316 316 316 316 316 315 315 314 313 314 316 316 315 314 314 313 313 314 317 319 318 317 315 313 312 311 309 309 310 310 310 310 310 311 312 313 314 315 316 316 317 318 321 323 325 327 329 331 331 331 333
319 318 316 321 329 326 320 320 319 318 323 327 326 324 323 322 322 322 322 324 324 324 323 322 320 319 319 318 318 318 318 317 317 317 317 317 316 316 317 317 316 316 314 313 313 315 317 316 314 313 314 315 316 316 317 316 314 311 309 308 308 308 308 308 308 309 309 310 310 310 310 311 311 312 313 314 315 315 316 316 317 317 318 319 320 321 323
320 321 320 322 326 324 319 322 324 323 324 326 324 322 322 322 321 321 321 322 322 321 321 320 319 319 318 317 317 317 317 317 318 318 317 317 317 317 317 317 316 315 314 314 315 317 317 316 315 316 316 317 317 315 313 311 308 307 307 307 306 306 307 307 308 308 309 309 310 310 310 310 311 311 311 312 313 313 313 315 318 319 321 325 328 329 331
322 325 325 323 322 322 321 322 324 323 323 323 322 321 321 320 320 320 320 319 320 320 320 319 319 318 317 317 317 316 316 317 318 318 318 317 317 317 317 317 316 314 314 315 316 317 316 315 316 316 316 315 315 314 312 308 306 307 307 307 307 307 308 307 307 307 308 308 309 310 310 311 311 311 311 312 312 314 317 322 326 329 333 338 342 343 344
321 322 323 322 321 321 322 322 322 322 322 321 321 321 320 319 319 319 319 318 318 319 318 318 318 317 316 316 316 316 317 318 318 318 318 317 317 317 316 316 315 313 313 313 314 315 315 314 314 314 313 313 313 313 311 309 309 311 311 311 311 311 310 309 308 308 311 312 312 310 310 310 311 313 316 318 318 320 324 326 328 332 336 340 343 344 346
321 321 323 323 322 322 322 321 322 321 320 320 320 320 320 319 318 319 319 318 318 317 317 317 317 317 317 317 317 317 317 316 317 317 318 317 316 316 315 314 314 313 313 313 314 313 313 312 312 311 312 312 312 312 311 312 314 315 314 313 314 313 312 310 310 311 314 316 317 317 316 317 318 319 321 323 323 325 326 325 327 333 338 340 342 345 347
324 322 322 321 319 320 321 321 322 320 319 318 317 318 319 318 317 318 319 318 318 317 317 317 317 317 317 316 316 316 315 316 317 317 317 316 315 315 314 313 314 313 313 313 313 311 311 310 311 311 312 313 313 313 314 315 315 315 315 314 313 313 312 312 312 314 316 318 320 321 321 321 320 321 322 324 324 325 325 324 325 330 334 337 339 341 342
324 323 322 321 321 321 320 320 321 320 318 317 316 317 317 317 317 318 318 318 318 317 316 316 316 316 316 316 316 316 316 317 317 316 315 315 314 314 314 313 313 313 313 312 311 311 311 311 311 312 312 312 313 314 315 316 315 315 315 314 313 313 313 313 313 315 316 316 317 317 317 316 315 316 317 320 322 324 324 324 325 327 329 332 335 337 339
324 324 322 322 325 325 322 320 320 319 318 317 316 316 316 317 318 318 317 317 317 316 315 315 315 315 316 316 316 316 316 316 315 315 314 314 314 313 313 313 312 312 311 311 311 312 312 312 312 312 312 312 313 313 313 314 314 314 314 314 313 313 313 313 314 315 315 314 314 314 314 313 312 311 311 312 314 316 318 319 320 320 321 324 327 329 331
323 323 320 319 321 322 321 319 319 319 319 319 318 317 317 317 318 319 317 317 316 315 316 316 315 316 316 316 316 316 315 315 314 314 314 314 313 313 312 312 311 311 311 311 312 311 311 311 311 312 312 312 312 312 312 312 312 312 312 313 313 313 313 313 314 314 314 314 314 314 314 314 313 312 310 309 309 310 311 312 313 313 314 316 317 318 318
321 321 320 320 320 319 319 318 318 318 319 319 319 318 318 317 317 318 317 317 316 316 316 316 316 316 315 315 315 315 315 314 314 314 313 313 312 312 312 311 311 311 311 311 311 310 310 311 311 311 311 310 310 310 311 311 312 312 312 312 313 313 312 312 312 312 312 313 313 312 312 312 312 311 311 310 309 308 309 310 311 312 313 314 316 318 319
320 320 320 320 320 319 319 318 318 318 319 319 319 318 318 318 318 318 317 317 316 316 316 316 316 315 315 315 315 315 314 313 313 313 312 312 312 311 311 311 311 311 311 310 310 310 310 310 310 310 310 310 310 310 310 311 312 312 312 312 312 312 311 311 312 313 313 314 314 314 313 313 312 313 312 312 312 311 309 309 309 311 312 313 315 317 318
319 319 319 319 319 319 319 319 319 318 318 319 318 318 318 318 318 317 317 317 316 316 316 316 316 315 315 315 314 313 313 313 313 312 312 312 311 311 311 311 311 311 310 310 310 309 309 310 310 310 310 310 310 310 311 311 311 311 311 311 311 311 311 312 313 314 314 314 315 315 315 315 316 316 316 315 315 315 314 313 312 311 312 315 318 320 320
318 318 318 319 319 319 319 319 319 319 319 319 318 318 317 317 317 317 317 316 316 316 316 316 316 315 315 314 313 313 313 312 312 312 311 311 311 311 311 310 310 310 310 309 309 309 309 309 309 309 310 310 310 310 310 310 310 310 310 310 310 310 310 311 312 313 313 313 313 314 314 315 316 316 316 316 316 317 317 318 319 320 319 318 319 320 320
318 318 318 318 318 318 318 318 318 318 319 319 319 318 317 317 317 317 316 316 316 316 315 315 315 315 314 313 313 313 312 312 312 312 312 311 311 311 311 310 310 309 309 309 309 309 309 310 310 310 310 310 310 310 310 310 310 310 309 309 309 309 309 309 310 311 311 311 312 312 312 313 313 313 314 314 315 316 318 319 320 320 320 319 317 316 316
318 318 318 318 318 318 318 317 317 318 318 318 318 318 317 317 317 316 316 316 316 316 316 315 315 315 314 313 313 313 312 312 311 312 311 311 311 310 310 310 309 308 308 309 309 309 310 310 310 310 310 310 310 310 310 310 309 309 309 309 309 308 308 308 309 310 311 311 311 311 311 312 313 313 313 313 314 315 316 318 319 319 320 320 321 320 320
317 317 317 317 317 317 318 318 317 318 318 318 318 318 318 317 317 316 316 315 316 316 316 315 315 315 314 313 313 312 312 311 311 311 311 311 310 310 309 308 308 308 309 309 310 310 310 310 309 309 309 309 309 309 309 309 309 309 309 309 308 308 308 308 309 311 311 311 311 311 311 312 314 315 315 314 314 314 315 316 318 319 321 322 324 324 325
317 316 316 316 317 317 317 317 317 317 317 317 317 317 317 317 317 317 316 315 316 316 316 315 315 315 314 313 312 312 312 311 311 311 311 310 309 309 308 308 308 308 309 310 310 310 309 309 309 309 309 308 308 308 308 308 308 308 308 307 307 308 309 309 310 310 310 311 310 310 311 312 314 315 316 315 315 315 315 315 315 316 317 319 321 324 325
317 316 315 315 315 315 316 316 316 317 316 316 316 317 317 317 317 317 316 316 316 316 316 315 315 314 314 313 312 312 312 311 311 311 310 309 309 308 308 308 308 309 309 309 309 309 309 308 308 307 307 306 306 306 306 306 307 307 307 307 307 308 309 309 309 309 310 310 310 310 310 311 313 315 316 316 316 316 316 315 315 316 316 316 317 319 322
316 316 316 315 315 316 315 315 315 315 315 315 315 315 316 317 317 317 316 316 316 316 315 314 314 313 312 312 312 312 311 311 310 309 309 309 308 308 308 309 309 309 309 309 308 308 307 307 306 305 305 305 305 305 305 306 306 306 307 307 307 308 308 307 307 308 309 309 309 310 311 311 312 313 314 316 317 317 317 316 316 316 316 317 317 317 318
316 316 316 315 316 316 316 314 314 314 315 315 315 315 315 315 316 316 316 316 316 315 314 313 313 312 311 311 311 311 310 310 309 309 309 309 308 308 308 309 308 308 308 307 307 306 306 305 305 305 305 305 305 305 305 305 306 306 306 306 306 306 306 306 307 307 308 309 310 310 311 311 312 312 313 314 315 316 316 317 317 316 316 317 318 318 319
315 315 315 315 315 316 316 315 315 315 315 316 316 315 314 314 315 315 315 315 314 313 313 312 312 311 311 311 311 310 309 309 308 308 309 309 309 308 308 308 308 307 306 305 305 305 305 305 305 305 305 304 305 305 305 305 305 305 305 305 305 305 306 306 307 308 308 309 309 310 310 310 311 311 311 312 313 314 315 316 317 317 317 317 318 319 320
314 315 315 315 315 316 316 316 315 315 315 316 316 315 315 314 314 314 314 314 312 311 312 312 312 311 311 310 310 309 309 308 308 309 309 308 308 308 307 307 306 306 305 304 304 305 305 304 304 304 304 304 304 304 303 303 304 304 304 305 305 305 305 306 307 307 307 308 308 309 309 310 310 310 311 311 312 313 315 315 316 317 317 318 318 318 319
313 313 313 313 314 314 315 314 314 314 315 316 316 315 314 314 314 314 315 313 311 311 312 312 311 311 310 310 309 309 309 308 308 308 308 308 307 307 306 305 305 304 304 304 304 304 304 304 304 303 303 303 303 303 302 303 303 304 304 304 305 305 305 306 306 306 306 307 307 308 308 309 309 309 310 311 311 313 314 315 316 316 316 317 318 318 318
311 311 311 311 312 312 313 313 313 314 314 314 315 314 314 313 313 314 314 312 311 311 312 311 310 310 310 309 309 309 309 308 308 307 307 306 306 305 305 304 304 304 304 304 304 304 303 303 303 302 302 302 302 302 302 302 303 303 303 304 304 304 304 304 304 304 305 306 306 307 307 307 307 308 309 310 311 312 314 315 315 316 316 317 317 318 318
310 310 310 310 310 311 311 311 313 314 315 314 314 314 314 313 313 313 313 311 311 311 311 310 310 310 310 309 309 308 308 307 307 306 306 305 305 304 304 304 304 304 304 304 303 303 302 302 302 302 301 301 300 300 301 301 302 303 303 303 303 303 303 303 303 304 304 305 305 306 306 307 307 308 309 309 310 311 312 314 315 315 315 316 316 317 317
309 309 309 309 309 309 310 310 311 313 313 313 312 313 312 312 313 313 312 311 311 311 310 310 310 310 309 309 308 308 307 306 306 305 305 304 304 304 304 304 304 304 303 303 303 302 302 302 302 301 300 300 300 300 300 301 301 301 301 301 301 301 302 302 303 304 304 305 305 305 306 306 307 308 308 309 310 311 312 313 313 314 315 316 316 317 317
308 308 308 308 308 308 309 309 310 312 313 312 312 311 312 312 312 312 311 311 310 310 310 310 309 309 308 307 307 307 306 306 305 305 305 304 304 303 303 303 303 303 302 302 302 301 301 301 301 300 300 299 299 300 300 301 301 300 300 300 300 301 302 302 303 303 304 304 304 305 305 306 307 307 308 309 311 312 312 312 313 313 314 316 317 317 317
308 308 308 308 308 308 308 309 309 311 311 312 311 311 311 311 310 310 310 310 309 309 309 309 308 308 307 306 306 305 305 305 305 305 304 304 304 303 303 303 303 302 301 301 300 300 300 300 300 299 299 300 300 300 300 300 299 299 298 299 300 301 302 302 303 303 303 304 304 304 305 306 306 307 308 310 311 312 313 313 314 314 315 317 318 318 318
307 307 307 307 307 307 307 308 308 309 310 311 311 310 309 309 309 310 309 309 309 309 309 308 307 307 306 305 304 305 305 305 305 304 304 304 303 303 303 303 302 301 301 301 300 299 299 299 299 299 299 300 299 299 300 299 299 298 298 299 300 300 301 301 302 302 302 303 303 304 305 306 307 308 309 310 311 312 313 313 314 314 315 316 317 318 318
307 307 307 307 307 307 306 306 307 308 310 310 310 309 309 309 309 309 309 308 308 307 307 306 306 305 305 304 304 305 304 304 304 303 303 303 303 303 302 302 302 301 301 301 300 300 299 299 299 299 299 299 299 299 299 298 298 298 298 298 299 299 299 300 300 300 300 301 302 302 303 305 306 307 308 309 310 311 312 313 313 314 315 315 315 316 316
307 307 307 307 307 307 306 306 307 308 310 309 309 309 309 309 308 308 308 307 307 306 306 305 305 305 304 304 304 304 304 303 303 303 303 303 303 302 302 302 301 301 301 301 300 300 299 298 298 299 299 299 298 298 298 298 298 297 297 297 298 298 298 298 298 298 299 300 300 301 302 303 304 305 306 307 308 309 310 310 311 312 312 313 313 314 314
307 307 307 307 307 306 306 306 307 308 309 308 308 308 308 307 306 306 307 306 306 306 306 305 305 305 304 304 303 303 304 304 304 303 303 303 302 302 302 301 301 301 301 300 300 300 299 298 298 298 298 298 298 298 297 298 298 297 297 297 297 297 297 297 297 297 298 299 299 300 301 302 302 303 304 305 306 306 307 308 309 309 310 310 311 311 312
307 307 307 307 306 306 307 307 307 308 308 308 307 307 307 307 307 306 306 306 305 305 305 305 305 304 304 304 304 303 304 304 304 303 303 303 302 302 301 301 301 301 301 300 300 299 299 298 298 298 298 298 297 297 297 297 297 297 297 296 296 296 296 296 296 297 297 297 298 299 299 300 300 301 302 303 304 304 305 305 306 306 307 307 308 308 308
306 306 306 306 306 307 307 307 307 308 308 308 307 307 307 307 306 305 305 305 305 305 305 305 304 304 304 304 304 304 303 303 303 303 303 302 302 301 301 301 301 301 300 299 299 298 298 297 297 297 298 297 297 297 297 297 297 297 296 296 296 295 295 295 295 295 296 296 296 297 297 298 299 299 300 301 302 303 303 304 304 304 304 304 305 305 305
305 306 306 307 307 306 307 307 307 307 306 306 305 305 306 306 305 305 305 305 305 305 305 305 304 304 304 304 304 304 303 303 302 302 302 302 302 302 301 301 301 300 300 299 298 297 296 296 297 297 297 297 297 297 297 297 296 296 296 295 295 295 295 294 295 295 295 295 295 295 296 296 297 298 299 300 300 301 302 302 302 303 303 302 302 303 303
305 305 305 306 306 306 306 306 305 305 305 305 305 306 306 306 306 306 305 305 305 305 305 305 304 304 304 304 304 304 303 303 302 302 302 302 302 301 301 301 300 300 299 298 297 296 295 296 297 297 297 297 297 297 297 296 296 295 295 295 295 294 294 294 295 295 295 294 294 294 295 295 296 297 297 298 299 300 300 301 301 301 301 301 301 301 301
305 305 305 305 305 305 305 305 304 304 304 305 305 305 305 305 305 305 306 305 305 305 305 305 304 304 304 304 304 304 303 303 303 302 302 302 301 301 301 300 300 299 299 298 296 295 295 296 296 296 296 296 297 297 296 296 295 295 295 294 294 294 294 294 294 295 294 294 294 294 294 294 295 295 296 296 297 298 299 299 299 300 300 300 300 300 300
306 306 305 305 305 305 305 305 304 304 304 304 304 305 305 305 305 305 305 305 305 305 304 304 304 304 304 304 304 303 303 303 303 302 302 302 301 301 300 300 299 299 298 297 297 296 295 295 295 296 296 296 296 296 296 296 295 295 294 294 294 294 294 294 294 294 294 294 294 294 294 294 294 294 294 295 296 297 297 298 298 298 299 299 299 299 299
Wind_Speed
3 5 7 6 6 5 6 9 9 7 6 6 3 1 1 3 5 6 9 14 16 14 13 12 10 12 14 19 23 22 20 21 19 18 18 17 16 16 16 16 16 16 17 14 13 14 14 13 14 15 14 14 14 13 12 11 9 7 4 5 8 8 8 9 10 12 14 16 16 17 19 19 20 21 22 22 22 18 15 21 25 21 19 22 22 21 20
7 7 6 4 6 6 6 9 9 7 9 10 7 4 4 7 10 12 12 12 12 12 13 12 13 18 23 25 28 26 23 22 20 19 19 17 16 16 16 16 16 16 17 16 14 12 12 11 11 12 12 13 13 12 11 11 9 9 6 3 5 8 9 8 6 8 11 13 13 13 14 15 17 21 21 20 23 23 16 18 26 26 22 23 23 22 22
8 8 2 2 6 6 5 8 9 9 7 8 9 7 6 10 13 12 11 10 7 7 13 17 19 24 24 22 24 25 25 24 23 21 20 18 17 16 16 16 15 16 16 16 16 15 15 14 11 9 8 8 9 9 8 9 8 8 7 4 4 6 7 6 5 5 7 9 9 8 8 9 12 17 20 20 22 26 23 19 23 27 25 24 24 24 23
4 7 4 3 5 5 5 6 8 9 4 2 5 5 5 9 11 12 10 7 4 6 13 18 22 27 23 18 21 25 26 27 24 21 20 19 17 16 17 16 15 15 15 15 16 17 17 17 16 13 10 8 8 8 7 7 8 9 8 5 4 5 5 5 5 6 7 8 7 7 8 9 9 12 18 21 22 25 26 23 22 24 25 24 25 25 22
3 7 6 5 3 2 3 4 7 9 7 2 3 6 8 11 12 10 8 7 6 8 12 14 17 21 21 18 20 24 26 26 24 21 20 19 17 17 16 16 15 14 15 15 15 15 15 17 17 17 16 15 13 12 12 11 10 8 6 3 3 4 5 7 8 9 10 10 10 10 11 10 10 11 15 20 23 25 26 26 24 24 25 24 25 26 24
4 7 8 7 3 2 0 3 6 10 11 7 1 4 10 12 10 7 6 8 9 9 11 12 13 18 21 22 23 25 27 26 23 22 21 19 18 17 16 16 16 16 16 16 14 12 13 15 16 16 15 15 14 15 16 15 11 10 8 5 2 2 3 5 8 10 12 12 11 11 11 11 12 13 14 18 22 24 26 27 26 26 26 26 25 26 27
3 6 7 5 2 1 1 5 8 10 11 9 7 10 12 12 12 12 12 11 11 12 13 15 20 24 25 24 23 22 23 23 21 21 20 19 18 18 17 16 16 16 16 15 12 11 12 13 14 16 15 14 13 15 18 17 12 11 12 12 9 5 2 1 3 6 9 12 12 10 9 12 14 15 16 17 19 21 23 25 26 27 28 28 28 27 27
2 3 3 0 2 3 4 7 7 8 8 7 7 10 10 9 11 13 12 9 9 13 18 21 24 25 23 22 21 19 16 16 17 18 18 17 16 16 16 15 15 16 16 15 11 9 11 12 13 13 13 13 12 14 16 14 10 9 11 15 15 12 8 4 2 1 2 6 9 9 10 13 15 16 17 17 18 20 21 22 23 25 26 28 29 29 29
1 1 3 1 1 3 4 4 3 5 6 5 3 6 7 7 11 13 11 9 10 12 18 24 26 25 21 16 17 19 17 17 17 16 16 16 16 16 15 13 13 16 17 15 12 7 8 12 13 11 10 10 11 13 14 12 9 8 9 12 15 15 13 10 6 4 3 1 3 7 9 10 12 16 16 16 18 19 20 21 22 22 23 25 27 28 29
2 2 3 2 2 1 3 3 3 8 9 8 5 5 4 5 12 16 13 12 13 14 18 23 25 22 14 6 11 20 21 18 17 16 15 15 15 16 15 11 11 15 16 13 10 5 7 12 11 8 7 6 6 10 13 12 9 8 8 10 11 12 12 11 10 8 6 5 3 1 4 4 6 11 14 15 16 16 17 18 20 21 21 22 24 25 27
3 2 2 1 0 3 4 3 5 10 11 8 6 5 1 1 13 20 15 12 15 17 19 20 19 14 6 2 11 21 21 19 20 19 17 15 12 11 10 9 11 13 13 12 8 6 8 11 9 4 4 3 3 7 9 9 6 4 5 8 9 9 9 9 8 8 7 6 5 4 4 4 4 6 8 11 13 14 15 15 17 19 20 20 21 21 22
2 2 3 1 0 2 3 2 7 9 7 5 4 3 3 4 10 20 20 17 18 21 20 12 5 4 4 7 16 23 23 21 20 19 17 14 12 10 8 9 10 9 9 8 6 7 8 8 5 2 1 1 4 6 6 5 4 1 3 6 8 8 8 7 6 6 7 6 6 6 6 6 6 6 6 6 9 11 12 13 13 15 17 19 19 19 19
4 3 3 1 0 1 1 4 7 6 5 4 3 3 5 5 5 12 18 19 21 24 22 13 6 8 14 20 23 24 22 20 17 16 15 12 11 11 9 8 8 6 4 4 4 6 7 4 2 1 2 4 5 6 5 3 2 2 3 5 7 9 10 9 7 6 6 7 8 8 7 8 8 7 6 6 6 7 8 10 11 12 13 15 16 17 17
3 3 3 1 1 0 3 6 7 5 3 1 3 1 4 10 16 15 13 15 20 24 24 22 19 19 22 26 24 22 21 19 17 16 14 12 11 11 8 6 6 4 2 2 4 5 4 1 1 2 3 5 5 5 3 3 3 4 6 7 8 10 11 10 9 8 7 7 8 9 9 10 11 10 9 9 8 8 8 9 9 10 11 12 14 15 15
2 3 1 0 1 1 5 5 4 4 2 4 3 5 12 16 18 18 16 17 24 28 28 26 25 23 23 23 22 20 18 15 13 13 12 10 10 9 6 4 3 2 1 2 4 4 2 2 2 3 3 3 3 2 3 5 7 7 8 9 10 11 12 12 11 11 10 10 9 9 10 10 12 12 12 12 12 11 11 11 12 12 11 12 13 13 12
1 0 1 2 4 1 6 6 3 4 6 5 5 7 12 16 16 16 18 20 24 29 28 26 25 23 21 19 18 17 16 14 13 12 11 9 9 8 5 2 1 0 2 3 4 3 2 2 3 3 2 1 1 3 5 6 8 9 9 10 10 11 12 12 12 12 12 11 11 11 10 10 11 12 12 13 13 13 12 13 13 13 13 12 11 10 9
1 2 3 4 4 3 11 11 8 10 9 6 7 10 12 13 12 11 14 19 22 25 25 25 25 22 20 18 16 15 14 13 12 11 10 9 8 7 5 2 1 1 2 3 4 3 3 3 3 2 2 2 2 4 6 7 7 8 9 10 11 11 11 12 13 13 13 12 12 12 12 12 12 12 12 12 12 11 10 10 11 13 13 12 10 10 9
3 0 6 8 6 5 12 12 9 9 8 6 7 8 8 8 8 7 7 12 17 20 20 20 21 20 18 17 16 15 14 12 11 10 9 8 7 5 3 1 2 3 3 3 3 3 4 4 4 4 5 5 5 7 8 8 8 8 9 10 10 11 11 12 12 13 13 12 12 12 12 12 12 12 12 12 11 10 9 10 12 13 15 15 15 13 12
4 1 2 3 5 8 13 13 8 7 7 6 6 7 7 8 8 9 8 9 10 14 16 17 17 17 16 15 14 14 12 10 9 8 6 6 4 2 0 3 4 4 5 5 5 5 6 7 7 7 7 7 8 9 10 9 8 8 9 9 10 11 11 12 12 11 11 11 12 12 12 11 11 11 11 11 12 11 11 13 13 11 11 12 13 12 12
1 2 4 9 4 4 10 12 10 7 6 6 4 6 9 9 9 10 10 10 10 10 11 14 16 15 14 13 11 9 7 7 8 7 6 5 3 2 2 3 3 4 5 6 8 9 10 9 9 9 8 8 8 9 9 9 9 9 9 10 11 11 11 11 10 9 9 9 9 9 10 10 11 11 11 12 13 13 12 14 15 14 12 13 13 14 14
4 4 5 10 7 3 3 7 8 7 7 8 5 5 8 9 10 11 10 9 9 9 9 12 13 12 11 11 9 9 9 10 10 7 4 2 1 2 2 1 2 4 7 9 11 11 10 10 10 9 9 9 8 7 7 7 8 9 10 11 12 12 12 11 11 10 10 10 11 12 13 14 15 15 15 15 16 17 16 16 17 19 20 20 20 20 21
3 2 3 6 2 3 6 5 2 1 7 12 12 8 8 9 11 12 10 8 8 8 8 10 12 12 11 11 12 12 10 8 7 6 4 3 2 1 1 0 3 6 9 10 10 9 9 10 11 10 9 9 9 8 8 8 9 10 11 12 13 14 13 12 12 12 13 14 14 15 17 18 19 20 20 19 20 21 22 21 21 22 24 26 27 28 29
2 2 1 2 2 4 8 9 5 4 2 7 14 15 14 13 14 15 15 13 11 11 10 10 11 13 12 11 11 11 9 6 6 6 5 4 3 3 3 3 5 8 8 8 8 8 10 11 11 11 10 10 10 10 10 10 11 12 13 13 14 15 14 14 14 14 15 16 16 17 18 19 21 23 24 24 23 23 23 24 24 23 24 26 27 28 30
3 3 3 4 5 5 8 10 8 6 10 9 6 12 16 16 16 17 18 18 17 16 14 12 12 12 12 12 12 11 9 8 7 7 6 5 4 3 3 3 5 6 6 7 9 10 12 12 13 14 14 14 14 13 11 11 12 13 14 14 15 16 17 17 17 17 17 18 19 19 20 21 22 23 26 28 28 27 26 25 24 24 23 24 24 24 24
4 5 5 5 7 8 9 10 9 11 14 15 10 6 10 15 17 18 19 21 22 20 17 16 14 12 12 13 13 10 9 8 8 9 8 6 4 4 3 3 4 5 6 7 9 11 13 15 15 15 14 14 13 12 12 11 12 14 15 16 17 17 17 17 17 18 18 18 20 21 21 21 22 23 24 27 29 30 30 29 27 26 25 24 24 25 25
5 7 8 9 11 12 12 13 14 15 16 17 16 13 9 10 12 15 18 22 23 19 17 17 17 14 12 14 13 11 9 10 10 9 8 7 8 7 5 5 7 10 10 11 13 14 14 14 14 13 13 13 13 13 13 14 15 16 17 18 18 19 18 17 17 17 17 18 19 19 19 19 20 22 23 25 27 30 32 32 32 30 28 26 25 25 25
6 8 8 8 9 10 11 12 13 15 16 17 19 19 17 14 13 12 13 18 21 20 19 19 20 16 12 13 15 14 13 12 10 8 8 8 7 7 6 7 9 11 12 13 13 14 14 14 14 13 13 14 14 14 15 16 17 18 19 20 20 20 19 18 19 19 20 20 21 20 20 20 20 22 23 24 26 28 29 30 31 32 32 31 28 27 27
6 7 7 7 9 11 12 12 13 14 14 14 16 18 19 21 21 16 11 12 16 21 22 21 21 19 15 14 14 14 13 11 9 8 8 9 9 10 10 11 12 12 12 12 12 14 14 14 14 14 14 14 15 16 16 17 18 20 21 21 21 21 20 21 21 22 23 23 24 24 24 24 24 25 26 26 27 27 28 29 31 32 34 34 33 32 31
4 6 7 8 10 12 13 14 15 16 15 14 15 16 18 20 22 22 18 14 14 18 22 22 20 19 19 19 17 14 12 11 9 8 9 9 9 10 11 11 12 13 12 12 13 14 14 13 14 15 15 16 16 17 17 18 19 21 22 22 22 22 22 22 22 22 23 24 25 26 26 26 26 26 26 27 27 27 28 29 30 31 31 32 31 31 31
5 7 7 8 10 11 11 12 14 15 16 16 15 17 19 19 20 23 26 24 20 20 22 23 21 20 20 19 17 15 15 14 12 12 12 11 10 10 10 11 12 12 12 12 12 14 15 16 17 17 18 18 19 19 20 20 20 21 22 22 22 23 23 23 23 24 25 26 26 26 26 26 26 25 25 26 26 27 28 29 29 29 29 29 28 28 30
7 7 7 7 7 8 9 10 12 14 16 16 16 16 18 19 20 24 27 27 25 24 24 24 22 22 21 18 15 14 14 14 13 12 11 10 9 10 12 13 12 11 12 14 16 17 18 18 19 20 21 22 23 23 23 23 23 23 24 23 23 23 23 22 22 24 26 27 28 27 27 27 27 26 26 26 27 28 29 30 31 32 32 32 30 28 27
6 7 8 8 8 9 9 9 11 14 16 17 17 17 18 18 20 23 23 23 24 25 25 22 19 20 21 19 17 17 16 15 12 10 8 9 11 12 12 12 13 14 15 17 18 18 20 21 23 23 24 23 22 21 21 21 22 22 23 23 23 24 24 24 24 25 27 29 29 29 28 28 27 27 27 28 29 30 30 31 32 33 33 33 34 33 29
4 6 9 10 11 12 12 12 12 14 15 15 16 17 19 19 20 21 21 22 24 27 25 19 15 17 20 19 18 18 16 13 9 7 7 10 11 11 12 14 15 17 18 18 19 21 23 24 23 21 19 19 18 17 17 18 19 20 21 22 24 25 26 27 27 27 28 29 29 29 29 29 29 29 29 29 29 30 31 32 33 34 33 34 35 35 32
5 6 9 11 12 13 13 14 15 15 15 15 15 17 18 19 20 19 19 20 23 25 24 18 15 16 19 17 15 13 10 7 5 4 5 7 9 12 15 17 18 18 19 20 22 23 22 20 18 16 16 17 18 19 19 20 20 21 23 24 25 26 27 28 28 27 27 28 29 29 30 31 31 31 30 30 30 31 33 34 34 34 34 35 35 34 33
8 9 11 13 13 14 14 15 15 16 17 18 18 17 17 18 19 19 18 19 20 19 19 17 16 16 17 15 14 12 10 8 7 7 6 7 9 13 16 17 19 20 21 20 19 17 16 16 16 16 17 18 19 20 21 22 23 24 25 25 25 25 26 27 26 26 26 27 28 30 31 31 32 32 32 32 32 32 33 34 34 34 34 35 35 35 34
11 12 14 14 13 13 14 14 15 17 18 19 19 18 16 16 18 19 18 18 18 16 17 19 19 18 16 13 12 11 10 9 8 8 8 9 11 13 14 16 18 19 18 15 13 14 15 16 16 17 18 19 20 21 22 23 23 23 23 23 24 25 25 26 25 26 27 28 29 30 31 31 32 32 33 33 34 34 34 34 35 36 36 36 36 36 35
13 13 14 14 14 14 14 15 16 18 18 18 19 19 17 16 18 19 18 17 17 18 20 22 21 17 14 12 11 10 10 9 9 9 9 10 11 13 15 15 15 14 13 12 13 15 16 17 18 20 20 20 20 21 21 20 19 20 21 22 23 25 26 27 28 29 29 29 29 29 30 31 32 33 33 34 35 35 35 34 35 35 36 37 37 37 38
13 13 14 14 14 15 16 17 16 16 17 17 18 18 16 15 17 20 21 19 19 21 23 22 20 17 14 12 11 10 9 8 8 8 9 10 11 12 13 12 11 10 11 12 14 15 17 18 20 20 19 19 20 20 20 18 18 19 21 23 24 26 27 29 30 30 29 28 28 29 30 31 32 33 34 34 35 36 35 34 34 34 35 37 39 39 39
14 15 16 15 15 15 16 17 16 15 15 15 16 16 16 16 18 21 21 20 21 25 25 23 19 17 15 12 10 8 7 7 7 8 9 9 9 8 8 8 8 9 11 12 14 16 17 18 17 17 18 19 19 19 18 17 18 19 21 24 26 27 28 28 28 27 26 26 27 27 28 30 31 32 33 33 34 35 37 37 35 34 35 36 39 40 40
16 17 17 17 17 16 16 17 18 17 16 16 15 15 16 16 19 22 22 21 24 25 24 21 19 17 15 13 11 9 7 6 6 7 7 7 6 5 5 5 8 10 11 13 15 16 15 15 14 15 17 18 18 18 18 18 19 22 24 25 24 24 24 23 23 23 24 26 27 28 29 31 32 33 33 33 32 33 35 37 37 37 36 36 36 38 39
16 17 17 18 18 17 16 18 18 17 17 16 13 13 14 17 21 22 21 22 23 22 20 19 18 17 15 14 12 10 8 6 5 5 5 5 5 4 4 5 9 12 13 14 15 15 14 13 14 14 15 16 18 18 19 20 22 24 25 22 20 20 20 20 21 23 24 26 28 29 31 32 32 33 33 32 30 30 30 32 35 37 37 36 36 35 34
17 18 18 19 19 18 18 18 17 15 14 14 12 11 12 17 21 23 23 23 23 21 19 17 16 15 15 13 12 10 8 6 5 5 4 3 3 4 4 6 9 12 13 13 15 15 14 14 15 15 15 16 18 19 19 21 23 23 21 18 17 17 18 19 21 22 23 25 26 27 28 29 30 31 31 31 30 29 28 28 30 32 32 32 32 32 32
19 18 18 18 19 19 19 18 16 13 12 12 11 11 14 17 20 22 23 23 22 19 17 16 14 13 11 10 10 10 9 7 6 4 3 2 2 3 5 7 10 11 12 13 15 16 15 15 16 16 15 16 18 19 20 21 21 19 16 15 15 16 17 18 19 21 22 24 25 25 25 25 26 27 27 26 26 26 26 26 28 28 26 25 24 25 24
17 17 16 17 18 18 18 18 15 13 12 11 10 14 18 21 24 25 25 22 19 16 14 12 12 11 10 10 11 10 8 7 6 5 4 3 2 3 7 9 9 10 12 14 15 15 15 15 15 15 16 17 18 18 19 20 19 16 14 14 15 17 17 19 21 22 23 24 24 23 24 24 24 24 23 22 21 21 22 24 25 25 24 22 20 19 20
15 15 15 15 15 14 14 14 13 12 13 14 15 19 24 26 28 27 23 19 16 14 13 12 12 12 12 10 9 8 6 6 6 6 5 5 4 4 6 8 8 9 12 15 16 16 16 16 15 14 15 17 17 18 19 19 18 16 14 14 14 15 17 19 21 22 23 23 23 23 23 22 22 23 23 22 21 20 21 21 22 22 23 23 22 23 23
14 13 13 13 13 12 11 11 9 10 14 16 16 18 21 21 20 18 16 16 16 15 14 13 13 12 11 9 7 7 7 6 5 4 5 5 3 3 6 9 10 11 12 14 16 16 17 17 16 15 15 16 17 18 19 18 17 16 15 14 14 15 16 17 19 21 22 22 22 22 22 22 22 22 23 22 21 21 21 21 21 22 22 23 24 25 26
13 11 10 10 10 9 9 7 5 8 15 18 19 19 19 19 19 17 16 16 16 15 13 13 12 12 10 9 8 8 8 7 5 4 4 4 3 3 5 9 12 12 12 13 14 15 17 17 16 15 14 15 17 19 19 18 17 16 16 15 15 16 16 17 17 18 19 20 21 21 21 21 21 21 21 21 20 20 20 21 21 21 21 22 22 23 23
11 10 8 7 5 5 6 4 6 11 14 17 21 22 21 20 20 18 17 16 15 14 14 13 11 10 9 8 8 7 7 6 5 5 4 3 3 2 4 7 10 11 13 13 14 15 16 16 15 14 14 16 18 19 19 18 17 15 14 14 16 17 17 18 18 17 17 18 19 19 20 20 20 20 20 19 18 18 19 19 19 19 19 19 19 20 20
13 11 8 6 4 4 3 1 6 9 10 13 19 21 19 17 18 17 16 16 16 15 13 10 9 9 9 7 6 5 3 3 4 3 2 1 2 2 4 7 10 12 15 16 15 15 15 15 13 13 14 16 17 17 18 18 17 15 13 13 15 16 16 16 16 17 17 17 17 17 18 18 18 18 17 16 15 15 16 17 17 18 18 17 17 17 17
16 14 11 8 6 6 5 4 5 8 10 13 16 19 19 19 19 18 16 15 15 14 11 9 7 8 8 7 6 4 3 2 2 4 3 1 1 3 5 9 11 13 15 16 15 15 15 14 12 12 12 14 15 16 16 17 17 15 12 12 14 15 15 15 16 17 17 17 17 16 17 17 17 17 16 15 14 12 12 12 13 14 15 15 14 15 15
16 15 14 11 9 7 7 5 5 10 13 14 14 16 17 17 16 15 15 14 13 13 12 10 7 7 7 7 7 5 2 1 2 2 3 2 1 2 5 9 11 14 16 16 15 15 15 15 13 11 12 13 13 13 14 15 16 14 13 13 14 14 14 15 17 18 18 18 18 17 16 16 16 16 15 14 13 12 10 9 9 10 10 11 11 12 13
12 13 14 12 10 9 9 8 8 12 14 14 13 13 14 14 14 14 13 12 11 11 12 12 10 9 8 6 4 2 2 2 2 1 2 2 1 1 3 6 10 13 15 15 14 14 16 17 15 12 11 11 12 12 12 13 14 14 14 14 15 14 14 16 18 19 19 19 19 19 19 18 17 15 14 13 12 11 9 8 8 8 9 9 9 10 11
Wind_Direction
294 289 300 327 331 332 357 345 318 290 306 342 7 82 107 113 114 138 164 148 139 147 145 138 144 141 130 123 125 129 131 133 135 125 111 99 91 88 87 87 86 90 94 100 118 134 137 135 134 128 126 140 155 165 174 178 179 172 175 208 212 217 226 222 222 225 223 224 224 225 229 231 229 225 226 232 231 223 221 228 232 232 228 230 239 246 248
344 313 283 313 336 342 353 340 344 9 10 1 357 357 40 85 114 138 150 139 131 134 134 140 145 133 127 130 134 136 132 130 129 121 113 109 106 100 93 90 87 86 88 88 95 117 127 122 131 136 129 130 134 141 157 163 163 157 145 149 187 203 216 212 201 203 210 215 218 221 226 230 229 226 227 230 221 217 227 229 221 221 222 223 233 244 248
337 316 307 345 323 325 336 331 348 7 4 360 355 358 59 96 115 125 126 118 109 123 140 144 136 124 123 128 129 128 125 119 115 112 110 111 110 107 101 96 90 85 84 82 81 89 95 88 94 120 133 132 124 121 141 153 155 166 172 169 169 183 198 205 209 208 204 209 212 213 222 233 234 227 225 226 217 214 224 228 218 217 219 219 225 237 245
318 310 339 331 294 307 325 334 356 355 340 1 348 355 68 105 118 117 118 122 124 151 149 139 125 117 114 110 108 109 110 111 111 111 109 107 103 101 100 96 91 85 81 78 76 77 81 78 71 72 80 92 99 94 100 118 135 157 173 178 183 191 197 207 229 239 227 222 222 223 226 232 237 235 231 228 222 219 226 232 225 219 219 221 222 227 235
300 305 321 310 303 3 339 339 12 4 357 10 325 355 64 113 132 129 139 154 148 145 139 130 120 114 108 102 99 103 107 111 116 117 114 113 107 100 100 98 95 93 88 83 80 76 78 81 74 68 68 68 70 76 86 97 112 128 141 154 188 211 224 227 234 243 242 241 244 242 236 229 229 240 241 235 231 229 229 233 233 227 224 226 226 225 227
301 314 332 334 357 100 187 337 19 11 359 355 349 54 73 100 116 105 117 130 123 122 125 123 118 110 106 104 99 100 104 105 110 116 116 116 113 108 104 97 92 95 93 87 86 82 79 86 87 82 75 65 60 73 86 88 86 86 87 85 105 181 226 240 245 251 252 249 248 248 245 238 234 240 245 239 234 232 230 230 231 229 228 228 228 226 227
303 326 358 6 338 213 50 20 22 15 4 13 61 78 79 96 106 103 110 122 124 122 118 112 109 108 111 112 105 103 106 101 101 108 111 114 116 114 108 99 91 92 90 84 82 71 63 77 92 94 89 75 61 70 83 86 81 74 73 71 72 84 113 190 237 259 263 258 256 258 256 250 244 243 243 237 232 232 232 231 230 230 230 231 230 229 230
295 332 357 129 232 283 3 29 23 15 10 14 48 69 79 97 109 110 114 114 106 113 120 120 116 115 118 121 117 115 120 120 113 109 108 111 117 121 120 112 101 96 91 88 85 67 51 61 73 79 89 94 82 73 76 78 75 69 66 66 66 67 71 86 121 133 277 264 258 254 250 246 241 236 234 231 229 231 233 233 233 234 235 235 234 234 235
278 293 280 263 82 328 353 29 45 48 33 357 15 80 88 93 106 113 112 100 90 103 120 125 127 128 127 126 126 125 129 136 131 123 115 111 113 118 116 106 100 99 94 88 88 78 57 60 60 54 69 97 102 93 84 71 49 40 51 58 59 59 59 65 77 84 79 87 220 230 238 245 242 235 232 228 227 230 233 235 237 238 240 241 241 242 241
338 1 304 339 43 316 327 15 66 66 45 9 18 79 76 87 120 128 125 121 129 131 129 133 136 136 131 121 126 128 130 133 135 132 125 119 119 120 111 95 93 100 98 91 88 84 65 64 64 57 61 79 90 90 93 84 51 27 27 34 40 48 52 53 57 60 62 62 63 244 260 281 263 247 241 237 234 236 238 238 239 241 243 244 246 247 247
335 350 300 293 152 262 288 336 32 49 40 13 26 61 17 150 138 138 129 122 136 137 137 146 148 139 138 154 139 138 137 134 132 129 122 116 117 122 114 91 86 96 105 101 85 75 79 75 73 77 82 78 32 41 74 94 82 35 3 2 8 24 37 38 36 36 37 38 36 13 334 324 311 286 269 257 250 249 249 248 245 242 243 246 248 251 253
263 276 287 304 58 260 263 349 35 38 27 11 47 80 251 236 156 150 148 144 145 141 139 145 138 113 140 137 132 136 135 128 127 126 120 112 103 98 95 93 94 103 119 115 83 64 77 79 74 77 62 342 347 12 46 92 102 33 342 345 345 349 3 15 14 9 6 4 3 357 342 330 328 333 327 300 276 267 267 268 262 253 250 253 256 260 261
247 235 242 246 297 237 241 43 43 35 16 22 105 168 260 316 64 132 148 148 144 142 141 136 105 102 121 121 121 126 124 117 118 122 119 112 95 83 83 100 114 115 109 108 88 70 71 69 55 18 325 323 340 5 25 55 63 1 332 333 335 335 339 344 344 344 347 346 342 335 329 324 322 329 335 330 316 300 291 290 286 279 273 271 273 276 275
245 229 225 263 334 174 102 62 45 38 41 115 174 141 19 36 58 82 115 132 132 131 130 131 124 114 114 115 116 121 124 120 120 123 121 113 99 92 93 105 118 117 83 85 93 79 65 34 308 316 328 342 0 12 10 357 347 335 328 328 329 333 336 336 333 330 325 326 328 325 321 319 317 317 319 319 321 320 315 308 304 303 299 294 294 294 290
240 242 243 346 310 195 126 99 33 17 75 168 173 61 53 61 69 76 88 111 127 127 121 122 123 114 110 112 112 115 125 128 127 130 132 126 117 114 110 102 110 112 18 49 82 79 42 345 346 358 16 31 22 349 321 317 320 324 329 332 332 333 335 333 330 327 320 316 314 313 313 313 311 312 313 314 316 320 322 320 317 316 314 309 305 302 296
33 243 262 245 264 346 99 106 100 105 112 117 117 89 69 64 69 77 81 95 122 133 128 124 124 116 111 115 116 115 122 129 129 130 131 131 133 131 125 125 166 59 37 61 77 73 33 27 37 42 57 69 322 293 297 310 322 329 333 335 334 333 332 331 329 326 320 316 311 306 305 308 308 308 309 311 315 318 320 322 323 324 325 321 315 311 306
291 206 182 211 258 59 91 97 103 112 111 96 101 105 88 75 76 85 84 87 107 126 129 126 125 122 117 121 126 123 123 130 129 124 127 135 137 133 133 162 271 17 56 76 77 59 37 42 48 31 357 339 317 306 312 325 334 334 333 334 336 335 333 331 331 329 325 322 316 308 302 304 307 310 310 310 312 315 319 326 328 328 330 330 324 320 318
343 196 145 155 186 139 112 112 112 113 113 108 112 116 110 100 97 101 107 104 105 114 123 124 126 128 124 123 129 130 127 129 129 126 132 139 137 142 159 219 340 1 16 28 39 31 13 6 1 351 344 347 343 334 337 348 352 343 339 338 336 334 333 332 334 337 335 332 327 321 314 310 312 319 323 320 316 318 324 328 327 323 320 315 307 299 294
11 356 112 142 184 159 129 124 128 125 121 121 122 131 144 147 129 117 134 151 134 119 118 121 127 136 137 135 138 138 130 125 130 136 137 134 131 152 279 352 355 359 9 11 4 355 350 346 345 346 347 350 349 347 351 358 356 345 338 332 328 327 327 330 334 337 336 334 331 329 327 320 315 318 322 317 308 303 302 304 307 309 305 295 286 277 269
330 240 345 354 335 174 145 139 144 147 147 146 130 126 141 151 149 134 135 154 160 144 131 126 125 133 149 158 159 155 144 139 144 145 141 133 118 58 21 13 2 360 0 350 340 340 342 341 342 345 349 351 353 359 1 356 345 336 331 326 324 323 324 325 327 328 325 321 316 310 305 297 292 289 287 286 282 277 274 276 281 282 277 269 264 263 263
300 273 353 4 349 258 181 146 149 164 175 169 154 137 144 151 156 150 142 144 151 152 154 149 138 135 152 166 166 157 151 152 156 160 166 170 139 26 26 17 345 337 336 336 340 348 351 346 341 339 339 341 346 352 350 337 326 325 325 319 316 317 319 320 319 313 303 296 291 289 287 285 281 278 272 269 269 269 264 261 263 269 273 272 268 267 267
285 254 59 35 23 268 312 340 9 217 200 184 177 177 174 170 170 169 165 161 161 164 172 173 164 154 153 157 163 167 169 171 175 180 179 164 130 89 104 16 327 332 339 342 346 347 341 334 332 333 333 334 335 327 316 309 306 309 313 314 315 316 317 317 316 309 301 297 296 296 295 292 289 286 281 276 272 271 269 265 261 262 266 267 267 268 270
273 201 172 333 283 268 300 309 317 345 316 197 192 199 201 193 187 184 180 175 171 170 173 178 178 174 172 172 173 177 185 185 177 180 191 197 203 220 238 277 318 335 341 337 328 323 321 320 321 320 314 311 309 308 309 314 314 311 310 311 313 312 310 308 306 304 303 302 300 298 296 295 294 293 293 290 286 284 284 283 279 275 272 270 270 271 272
305 282 278 284 266 266 293 293 276 288 312 305 243 210 207 205 200 193 190 188 185 180 177 181 186 189 193 193 187 185 187 187 185 190 195 190 190 213 259 314 335 335 325 310 305 306 306 306 307 309 310 309 307 306 310 318 318 312 308 305 304 305 305 305 304 305 307 308 306 302 299 297 296 297 298 297 294 291 290 291 291 290 286 283 280 277 273
288 290 293 283 272 274 289 291 265 249 267 288 292 251 214 210 209 208 205 201 196 191 190 192 194 196 193 188 185 184 187 191 197 194 186 184 211 256 298 322 311 302 305 309 307 303 303 306 308 311 317 320 317 314 311 308 303 300 299 298 298 299 303 306 309 310 310 310 311 311 309 306 304 302 302 301 299 296 293 291 291 290 289 288 286 284 281
271 281 281 278 278 276 274 273 266 257 258 265 269 266 251 227 221 223 219 209 199 192 189 189 187 188 196 202 205 205 197 191 195 203 215 243 265 276 283 278 273 276 284 295 302 306 311 315 315 315 319 320 317 315 310 304 300 297 293 292 292 293 295 301 306 306 304 302 303 305 307 307 305 302 301 301 300 298 297 296 296 295 294 293 291 290 290
270 276 279 277 275 274 274 276 278 274 268 263 263 264 259 252 254 250 228 214 208 201 195 193 190 188 200 216 214 204 195 195 206 229 250 257 253 246 245 255 270 282 290 298 306 311 313 314 312 311 313 313 309 306 303 300 298 296 293 292 293 293 293 293 293 293 293 292 291 291 292 292 291 292 294 295 295 295 296 297 297 296 294 292 290 289 289
276 276 280 280 276 274 276 283 289 286 277 267 264 260 251 249 253 252 232 215 213 206 202 205 203 199 206 216 208 194 196 209 224 236 230 219 221 234 245 258 274 286 293 300 307 309 310 312 310 306 304 302 299 297 297 296 295 294 294 295 296 296 298 298 295 291 289 288 288 288 288 288 288 288 289 289 288 288 290 291 290 289 289 289 291 292 292
312 306 298 294 293 288 282 281 284 285 280 273 265 261 258 256 253 246 236 229 225 214 208 207 205 205 211 216 213 210 216 218 216 214 210 213 232 250 257 269 285 294 297 299 301 301 300 298 296 293 292 291 289 290 291 291 292 293 294 295 296 298 301 301 299 297 293 290 289 288 288 290 291 291 291 290 287 284 284 285 287 289 292 295 298 297 295
342 334 314 302 302 301 295 292 291 286 281 277 269 264 266 265 257 246 237 231 228 222 210 201 199 203 207 208 209 215 221 219 218 226 233 239 253 265 273 286 297 302 300 295 290 289 288 285 284 285 285 285 285 285 285 286 287 289 292 296 299 301 302 300 297 296 294 294 293 292 291 292 291 291 292 293 292 288 284 281 279 281 286 291 296 297 296
347 339 321 309 306 301 292 287 285 281 279 279 272 264 264 262 254 247 237 229 227 225 212 201 203 210 211 209 211 213 214 217 221 229 239 251 265 279 290 294 292 287 285 284 282 282 282 283 284 286 287 288 289 287 286 285 286 288 291 295 297 299 301 300 297 294 293 294 295 295 294 293 292 290 288 288 290 291 289 286 283 281 280 279 279 282 288
347 339 331 330 330 322 307 287 272 269 273 275 269 261 258 255 252 249 241 233 232 228 214 203 208 214 210 207 207 203 200 207 216 225 245 264 273 279 281 278 273 273 277 282 284 285 286 289 292 294 294 295 296 296 294 292 291 291 293 295 295 296 298 298 296 293 292 292 294 295 295 294 292 290 287 284 284 286 287 287 287 287 286 282 277 272 271
338 333 332 332 327 321 314 302 288 278 274 274 268 260 255 253 251 250 245 240 235 226 212 203 204 201 193 190 193 195 199 207 217 234 258 264 264 265 263 264 270 277 280 283 286 289 292 294 296 298 299 301 303 305 304 301 297 294 293 292 293 294 295 296 294 293 291 291 292 293 294 292 290 288 286 283 281 281 281 282 283 283 285 285 284 281 276
313 309 311 310 307 306 307 306 300 292 284 281 277 270 264 257 248 243 242 241 231 215 205 205 205 192 183 182 183 184 186 188 184 194 231 250 256 258 261 267 274 280 284 288 290 292 295 297 298 302 308 312 311 308 305 302 299 297 295 295 295 295 296 296 295 294 291 290 291 291 290 290 290 289 287 285 282 280 279 279 280 281 281 281 283 285 284
302 297 297 298 296 293 293 296 295 290 284 281 278 276 275 267 252 241 240 241 231 209 196 197 193 176 166 167 166 162 162 169 178 193 218 242 257 262 265 269 276 281 288 294 295 296 298 301 301 304 308 311 309 305 302 300 298 296 296 297 297 297 296 296 294 292 290 289 289 289 289 289 288 288 288 287 285 282 279 277 277 278 278 279 279 280 280
310 303 300 301 298 288 282 285 288 286 283 280 276 276 277 271 257 243 233 230 224 207 191 189 187 175 165 164 165 167 174 186 198 217 236 249 262 269 272 277 284 290 295 299 298 294 293 294 296 298 299 300 300 301 301 301 299 295 295 295 296 295 295 293 292 290 289 288 287 287 287 287 288 288 287 286 284 282 280 278 275 274 274 276 277 276 275
310 306 303 301 297 290 286 288 289 287 282 279 277 278 278 271 256 239 219 206 203 198 192 191 190 185 176 174 175 178 185 195 207 222 237 252 266 274 278 285 292 296 295 291 287 288 291 293 295 296 296 298 300 302 305 306 305 301 297 296 295 293 290 288 287 288 289 288 287 286 285 285 285 284 283 282 281 280 280 280 279 277 275 276 277 276 275
305 304 304 303 299 296 295 295 294 290 284 280 278 276 274 264 246 228 212 201 196 193 188 186 186 184 180 178 181 183 188 199 217 234 250 263 272 277 281 288 293 292 288 286 287 292 297 299 297 297 299 302 303 303 304 307 308 304 298 294 292 291 288 286 287 289 289 288 287 286 286 285 285 285 284 282 280 278 278 279 280 279 278 276 275 275 275
305 304 306 306 304 300 298 296 295 290 283 278 276 274 271 260 238 218 203 191 185 182 179 178 180 182 181 180 182 186 199 217 231 244 255 263 269 274 279 284 287 287 289 292 295 298 301 301 301 302 304 307 308 309 310 312 311 305 297 293 290 290 289 289 288 288 288 288 288 288 287 287 287 288 287 285 281 278 276 276 277 280 281 280 277 275 275
305 305 306 304 302 300 298 296 294 288 282 281 283 281 271 250 225 207 193 180 175 175 177 177 175 174 173 175 175 177 191 212 225 236 246 250 253 260 268 273 278 283 287 290 294 299 303 304 305 306 307 310 315 319 319 318 313 306 301 298 295 293 292 292 290 290 290 291 291 290 289 288 288 287 287 286 285 281 277 274 275 277 280 282 281 277 273
306 305 303 301 300 298 295 293 291 285 279 281 287 282 257 225 200 187 179 172 168 168 170 172 171 166 165 169 175 178 187 203 216 223 229 231 234 244 249 258 273 285 292 296 302 308 307 303 305 310 313 316 320 322 320 317 312 307 304 302 300 298 297 295 294 293 293 293 293 291 290 289 289 287 285 285 284 282 278 276 275 276 278 281 281 277 272
304 302 298 296 297 295 291 289 287 280 275 279 282 267 232 198 176 166 163 162 162 163 162 162 163 163 165 170 173 174 180 192 201 205 212 224 240 250 253 263 283 298 307 314 324 328 318 305 308 319 323 321 321 320 316 313 311 310 308 305 302 300 300 300 300 299 298 297 296 294 293 291 290 288 286 285 285 284 282 279 278 279 282 281 275 268 264
301 301 298 296 293 290 287 286 283 273 269 273 266 233 197 173 161 160 161 160 160 161 159 156 158 164 166 162 157 157 165 177 183 184 190 215 249 271 281 288 298 306 312 320 329 332 323 313 316 323 324 322 321 319 317 317 318 318 315 311 308 306 305 305 304 303 302 301 301 300 299 297 295 291 289 289 288 285 283 281 280 280 278 272 262 254 253
302 303 302 298 293 288 287 286 280 262 250 243 223 200 187 172 162 159 159 157 155 154 150 147 150 150 143 141 148 158 169 178 177 172 171 173 196 273 293 297 300 302 306 314 321 324 323 322 322 322 322 324 324 321 322 326 329 326 318 313 311 311 310 309 307 306 304 304 306 306 305 302 299 295 293 292 289 284 281 280 278 276 272 267 262 260 262
304 303 301 299 296 293 289 283 270 246 231 217 196 182 177 169 160 155 157 157 151 142 136 134 138 140 143 150 160 164 164 169 175 182 190 194 206 259 285 289 291 296 305 313 319 322 325 327 325 322 324 328 326 323 327 335 339 335 326 321 319 318 315 312 310 309 308 307 308 307 305 302 300 298 297 296 293 289 284 280 277 275 274 274 274 275 276
313 308 301 297 296 295 291 285 269 238 222 212 195 179 175 170 161 157 159 156 147 141 140 142 144 147 151 155 153 144 142 154 175 194 209 221 242 275 286 288 293 303 316 323 324 324 324 324 323 324 329 331 329 329 334 340 343 341 337 334 332 327 320 315 311 310 309 309 310 310 308 304 301 299 298 296 293 291 288 286 283 280 279 279 280 281 281
327 325 315 302 295 297 299 291 256 211 200 189 172 160 160 160 153 148 146 144 142 144 148 150 150 152 155 159 160 155 152 157 172 186 201 227 263 294 295 292 297 311 327 329 323 319 319 318 318 323 330 333 333 335 338 340 342 343 342 340 335 330 326 323 320 316 313 313 314 314 312 310 307 304 302 300 296 292 289 288 287 285 284 283 283 283 283
358 357 347 331 323 330 325 285 206 194 190 174 156 147 148 148 142 136 133 133 136 142 147 148 149 153 158 164 168 162 153 157 178 193 204 229 256 278 294 295 301 316 328 326 317 315 316 315 314 321 331 335 337 339 340 340 341 341 337 333 331 330 330 331 332 330 327 324 322 319 318 316 313 310 307 303 297 291 289 289 288 287 287 288 287 286 286
25 22 12 4 18 30 21 160 176 177 172 157 148 146 145 141 137 135 136 140 145 150 151 148 144 145 150 160 171 172 167 176 181 174 161 321 309 303 308 308 311 320 327 328 328 330 330 325 321 325 332 336 339 343 343 343 343 341 335 330 331 334 336 337 339 339 337 335 331 327 325 322 318 314 309 303 295 290 289 288 286 286 286 288 288 288 288
35 40 44 45 53 66 72 94 138 148 147 147 148 147 144 140 140 143 146 149 152 153 150 142 130 127 136 155 175 192 218 229 170 154 160 230 302 321 321 318 317 321 328 335 343 347 344 338 335 336 338 341 345 348 347 346 347 347 342 334 335 339 342 346 349 350 348 345 340 335 329 325 323 320 315 306 298 292 288 285 284 283 284 284 285 287 289
34 42 50 50 49 53 55 62 108 136 141 142 143 141 139 140 144 146 147 148 151 152 151 146 131 120 134 160 179 185 184 135 111 147 193 236 286 340 335 327 323 322 328 338 349 353 352 352 354 353 350 351 354 354 352 352 355 357 354 348 347 349 352 354 356 359 359 358 355 350 344 336 332 329 324 315 305 296 288 281 278 279 281 283 285 289 293
29 33 37 36 35 43 56 74 111 135 140 142 145 147 147 147 145 141 141 147 154 154 151 147 140 138 152 175 189 171 145 151 169 203 237 260 327 27 347 328 321 320 325 335 346 352 355 360 4 3 360 360 2 2 0 1 4 7 7 4 2 2 4 4 4 5 6 6 4 3 1 357 352 346 338 327 315 303 294 288 283 281 281 282 283 285 288